Regional Weather Roundup
Issued by NWS

Home | Current Version | Previous Version | Text Only | Print | Product List | Glossary On
Versions: 1 2 3 4 5 6 7 8 9 10 11 12 13 14 15 16 17 18 19 20 21 22 23 24 25 26 27 28 29 30 31 32 33 34 35 36 37 38 39 40 41 42 43 44 45 46 47 48 49 50
000
ASUS43 KDMX 082101
RWRIA

WEATHER ROUNDUP FOR IOWA
NATIONAL WEATHER SERVICE DES MOINES IA
300 PM CST THU DEC 08 2016

NOTE: "FAIR" INDICATES FEW OR NO CLOUDS BELOW 12,000 FEET WITH NO
SIGNIFICANT WEATHER AND/OR OBSTRUCTIONS TO VISIBILITY.

* - THESE STATIONS ARE NOT NWS STATIONS...THUS NOT UNDER NWS
QUALITY CONTROL.  THEY ALSO DO NOT REPORT WEATHER SUCH
AS PRECIPITATION OR FOG.

IAZ001>003-012>014-020>022-031>034-043>046-082200-
   NORTHWEST IOWA

CITY           SKY/WX    TMP DP  RH WIND       PRES   REMARKS
CARROLL *      SUNNY     23  10  58 NW20G28   30.52R WCI   8
CHEROKEE *     SUNNY     22   9  56 NW14G21   30.53S WCI  10
DENISON *      SUNNY     23   9  54 NW18G25   30.52S WCI   9
LE MARS *      SUNNY     23   7  50 NW20G26   30.57R WCI   8
ORANGE CITY *  SUNNY     21  10  63 NW20G26   30.52S WCI   6
SHELDON *      CLOUDY    21  10  63 NW21G28   30.50S WCI   6
SIOUX CITY     SUNNY     24   7  48 NW18      30.58S WCI  10
SPENCER        MOSUNNY   22  10  60 NW25G33   30.50R WCI   5
STORM LAKE *   SUNNY     21  10  63 NW21G26   30.50R WCI   6
$$

IAZ055>058-069>071-079>083-090>094-082200-
   SOUTHWEST IOWA

CITY           SKY/WX    TMP DP  RH WIND       PRES   REMARKS
ATLANTIC *     SUNNY     23  10  58 NW22      30.55S WCI   8
AUDUBON *      SUNNY     23  10  58 NW10G21   30.52S WCI  12
CLARINDA *     SUNNY     25  10  54 NW13G22   30.60R WCI  13
COUNCIL BLFS * SUNNY     23   9  54 NW17G24   30.57R WCI   9
CRESTON *      SUNNY     23   9  54 NW16G25   30.53R WCI  10
HARLAN  *      SUNNY     23  10  58 NW21      30.58S WCI   8
LAMONI         SUNNY     24  10  55 NW17      30.53R WCI  11
RED OAK *      MOSUNNY   25  10  54 NW15G23   30.58S WCI  12
SHENANDOAH *   MOSUNNY   25  10  54 NW15      30.61S WCI  12
$$

IAZ047>049-059>061-072>074-084-082200-
   CENTRAL IOWA

CITY           SKY/WX    TMP DP  RH WIND       PRES   REMARKS
AMES           MOSUNNY   25  13  60 NW15      30.50R WCI  13
ANKENY *       CLOUDY    23  10  58 NW14G24   30.52S WCI  11
BOONE *        PTSUNNY   23  10  58 NW14G26   30.48R WCI  11
CHARITON *     MOSUNNY   23  10  58 NW15G23   30.51R WCI  10
DES MOINES     MOSUNNY   25  10  53 NW20      30.51R WCI  11
GRINNELL*      CLOUDY    21  13  70 NW18G26   30.48R WCI   7
KNOXVILLE *    CLOUDY    23   9  54 NW17G26   30.49S WCI   9
MARSHALLTOWN   PTSUNNY   23  13  65 NW18G28   30.46S WCI   9
NEWTON *       CLOUDY    23  12  63 NW17      30.48S WCI   9
PELLA *        CLOUDY    24  11  60 NW16G22   30.51R WCI  10
PERRY *          N/A     24  14  63 W16       30.52S WCI  11
$$

IAZ004>006-015-016-023>025-035-036-082200-
   NORTH CENTRAL IOWA

CITY           SKY/WX    TMP DP  RH WIND       PRES   REMARKS
ALGONA *       PTSUNNY   23  12  63 NW18G29   30.46R WCI   9
CLARION *      PTSUNNY   23  12  63 NW20G29   30.45S WCI   8
ESTHERVILLE    MOSUNNY   20  11  68 NW20G30   30.47R WCI   4
FORT DODGE *   SUNNY     25  12  58 NW13      30.49R WCI  13
MASON CITY     CLOUDY    22  12  65 NW22G30   30.44R WCI   6
WEBSTER CITY * PTSUNNY   25  14  63 NW22G28   30.46R WCI  10
IOWA FALLS *   PTSUNNY   25  15  67 NW20      30.45S WCI  11
$$

IAZ007>011-017>019-026>030-037>042-050>054-066-082200-
   NORTHEAST IOWA

CITY           SKY/WX    TMP DP  RH WIND       PRES   REMARKS
CEDAR RAPIDS   CLOUDY    20  16  84 W17G26    30.44R WCI   5
CHARLES CITY * FLURRIES  19  14  79 NW21      30.42R WCI   3
CLINTON *      FLURRIES  22  16  78 W25       30.41R WCI   5
DECORAH *      FLURRIES  21  16  79 W10G18    30.36R WCI  10
DUBUQUE        CLOUDY    21  14  74 NW17      30.37R WCI   7
MONTICELLO *   CLOUDY    21  16  79 W17G24    30.41R WCI   7
OELWEIN *      FLURRIES  21  16  79 NW21      30.41R WCI   6
WATERLOO       CLOUDY    21  13  71 NW17G24   30.44R WCI   7
$$

IAZ064-065-067-068-078-082200-
   EAST CENTRAL IOWA

CITY           SKY/WX    TMP DP  RH WIND       PRES   REMARKS
DAVENPORT      CLOUDY    21  13  71 W23       30.43R WCI   5
IOWA CITY      CLOUDY    22  12  65 W20G26    30.48R WCI   7
MUSCATINE *    CLOUDY    23  12  63 NW18G25   30.49R WCI   9
QUAD CITIES    CLOUDY    22  12  65 W21G26    30.44R WCI   6
$$

IAZ062-063-075>077-085>089-095>099-082200-
   SOUTHEAST IOWA

CITY           SKY/WX    TMP DP  RH WIND       PRES   REMARKS
BURLINGTON     CLOUDY    21  11  65 NW14G20   30.48R WCI   8
FAIRFIELD *    CLOUDY    21   9  58 NW17G25   30.49R WCI   7
FORT MADISON * CLOUDY    21  10  63 NW18G28   30.49R WCI   6
KEOKUK *       PTSUNNY   25  10  54 NW15G22   30.49R WCI  12
OSKALOOSA *    CLOUDY    22  12  64 NW20      30.50R WCI   7
CENTERVILLE *    N/A     25  10  54 W15       30.51S WCI  12
OTTUMWA        PTSUNNY   23   9  55 NW18G25   30.50R WCI   9
WASHINGTON *   FLURRIES  21  12  68 NW22G29   30.49R WCI   5
$$

ABBREVIATIONS USED IN REMARKS
   TC - TEMPERATURES IN CELSIUS
  WCI - WIND CHILL INDEX
   HX - HEAT INDEX
  VSB - VISIBILITY
$$




USA.gov is the U.S. government's official web portal to all federal, state and local government web resources and services.